Wind_Speed
12 12 12 12 12 12 12 11 11 11 12 12 13 14 14 15 16 16 16 17 17 18 18 18 19 19 19 19 19 19 18 18 19 19 19 19 19 19
12 12 12 13 13 13 13 13 13 13 14 14 15 16 16 16 16 17 18 18 18 19 20 20 19 19 19 19 19 20 20 20 20 20 20 20 20 20
13 13 13 13 14 14 15 15 16 16 16 16 16 17 17 17 17 18 19 19 20 20 21 21 21 21 21 21 20 21 21 21 21 21 21 21 20 21
15 15 15 15 15 16 16 17 17 17 17 17 18 18 18 18 19 19 20 21 21 22 21 21 22 22 21 21 21 21 22 22 22 22 22 21 21 21
16 16 16 17 17 17 18 18 19 19 19 19 19 20 20 20 20 21 22 22 22 22 22 22 22 22 22 22 22 22 22 22 23 23 23 23 22 22
17 17 18 18 19 19 19 20 20 20 21 21 21 21 22 22 23 23 23 23 23 23 23 23 23 23 23 23 24 24 23 23 24 24 24 24 24 23
19 19 19 19 19 20 21 21 22 22 22 23 23 23 23 24 24 24 24 25 25 25 25 25 25 25 25 25 25 25 24 25 24 25 25 25 25 25
20 20 21 21 21 22 22 22 23 23 23 24 24 24 24 25 25 26 26 26 26 26 27 26 26 26 26 26 26 27 27 26 26 26 26 26 27 27
21 22 22 22 23 24 24 24 24 24 25 25 25 25 25 27 27 27 27 27 27 27 27 27 27 27 26 27 27 27 27 27 27 27 27 27 27 28
23 22 23 22 23 24 25 25 26 26 26 27 27 27 26 27 28 28 28 28 28 28 28 28 28 28 28 29 29 29 29 29 29 28 28 28 28 28
25 25 24 24 25 25 26 27 27 27 28 27 28 27 28 28 29 29 29 28 28 29 30 30 30 30 30 30 31 31 30 29 29 29 28 28 29 29
26 26 26 26 27 28 28 27 27 27 27 27 28 29 29 29 30 30 31 31 31 31 32 32 32 32 32 32 31 31 31 30 29 29 29 29 29 30
28 28 28 28 28 29 29 29 29 29 29 29 30 30 30 30 31 32 33 33 33 33 33 33 32 32 32 32 31 31 31 30 29 30 30 29 29 29
30 30 30 30 30 30 30 30 30 30 29 30 31 31 31 32 32 33 33 34 33 33 33 32 32 32 32 32 31 31 30 31 30 30 29 29 29 29
31 31 31 30 30 31 31 30 30 31 31 31 31 31 32 32 32 32 33 33 33 32 32 32 32 32 32 32 31 31 31 31 30 30 29 29 29 29
32 32 32 31 31 31 30 30 31 32 31 31 31 31 31 31 31 32 32 32 32 32 32 32 31 31 31 31 31 30 30 30 30 30 29 29 29 29
32 32 32 32 32 32 32 32 31 31 31 31 30 30 30 31 31 31 32 32 31 31 32 31 30 30 30 30 30 29 29 29 29 29 29 29 29 30
32 32 32 31 31 31 32 32 31 31 30 30 30 30 31 31 31 31 31 31 31 31 31 32 32 31 30 30 30 29 29 29 29 29 30 30 30 30
31 31 31 31 31 31 31 31 31 30 29 29 29 30 30 31 30 30 30 31 31 31 32 32 32 32 30 29 29 29 29 29 29 30 30 30 30 30
31 30 30 31 31 30 30 30 29 29 29 29 29 29 30 30 30 29 29 30 30 31 31 31 31 30 29 28 28 29 29 29 29 29 29 30 30 31
30 30 30 30 30 29 29 29 28 28 28 28 28 29 29 29 28 28 28 28 29 29 29 29 29 30 30 30 29 29 29 29 30 30 29 29 29 30
29 30 30 30 30 29 28 27 27 27 28 28 28 28 28 27 27 28 28 28 29 29 28 29 29 29 29 30 29 29 30 30 30 30 29 28 28 28
30 30 30 30 30 29 28 28 28 29 29 28 28 28 28 27 27 27 27 28 29 28 28 29 29 29 29 29 29 29 29 30 30 30 29 28 28 28
Wind_Direction
283 282 279 279 278 278 277 278 282 284 285 284 284 286 286 285 282 281 283 282 281 281 282 284 284 281 279 277 279 277 274 274 275 277 277 278 279 278
281 282 277 275 274 275 274 274 276 278 280 282 286 287 287 286 284 282 282 282 282 282 284 284 286 283 282 282 281 280 277 276 276 276 276 277 277 277
278 280 277 274 274 274 275 275 277 277 278 280 283 285 287 286 285 285 287 286 285 284 284 283 283 285 283 281 279 280 279 277 276 275 276 277 276 276
277 277 277 275 275 275 277 277 278 278 279 281 283 283 285 285 284 286 288 288 288 286 283 283 283 283 283 281 279 280 280 279 277 276 275 276 276 276
280 278 280 279 278 278 278 279 279 278 278 281 282 284 284 284 284 286 286 287 288 287 286 285 285 284 282 281 280 280 281 279 278 278 277 276 276 276
279 278 280 281 280 279 279 279 278 277 278 279 281 282 282 282 283 285 286 286 286 286 286 285 285 284 282 282 281 281 281 280 278 277 276 275 275 274
280 278 277 278 279 280 280 280 280 278 278 278 279 280 281 282 283 284 285 284 285 285 285 285 284 283 282 281 281 280 280 280 278 277 275 274 273 272
280 279 277 278 277 278 279 281 282 281 279 279 279 279 280 281 283 284 284 284 285 285 284 284 284 282 281 281 281 281 282 282 279 278 276 274 272 271
279 280 279 280 281 279 279 281 282 282 280 279 279 279 279 280 282 284 285 284 285 284 284 284 284 283 281 280 280 281 282 281 281 279 276 273 273 272
280 280 280 281 281 280 280 281 281 280 281 280 279 279 280 283 283 282 284 285 286 286 285 284 282 282 281 281 280 279 280 280 280 278 275 273 272 271
281 282 281 280 282 282 283 282 281 280 280 279 279 279 280 282 284 285 285 285 285 287 286 285 284 283 283 282 280 279 279 279 278 276 274 273 271 270
280 280 279 280 282 283 284 284 284 283 281 280 281 280 280 282 284 286 286 286 285 286 286 286 284 283 282 281 279 278 278 277 276 275 274 273 271 270
279 279 280 280 281 283 284 284 284 283 282 283 284 284 282 283 284 285 285 286 286 286 286 286 285 283 282 281 278 278 277 277 276 275 274 273 272 269
279 280 281 279 279 281 282 282 282 282 283 284 284 285 285 285 286 286 287 287 287 287 286 286 286 285 283 282 279 277 278 277 275 274 272 271 272 270
279 281 283 282 280 280 280 281 281 282 283 284 284 284 285 286 286 287 288 288 288 287 287 287 287 286 283 283 281 279 279 279 277 274 271 271 271 270
278 280 282 283 283 282 281 281 281 282 283 283 283 284 285 286 287 288 288 288 288 287 287 287 287 287 285 283 283 282 281 279 277 274 273 273 271 270
278 279 280 280 281 282 282 283 283 284 283 282 282 283 285 287 288 289 288 287 287 287 287 287 287 287 286 284 284 282 281 280 277 274 272 272 271 270
278 279 280 279 280 281 283 284 284 285 284 282 283 285 286 287 288 288 288 287 287 287 287 287 286 286 286 285 284 283 281 280 277 275 272 272 271 270
279 279 279 279 281 282 283 283 284 284 283 282 283 285 286 287 287 288 288 287 286 286 287 287 286 286 285 284 283 282 281 279 277 275 274 272 270 271
278 279 279 280 281 282 282 283 283 283 283 283 283 285 285 286 287 287 286 286 286 286 287 287 288 287 284 284 283 283 281 280 278 277 276 273 271 271
278 279 280 281 282 283 283 284 284 283 284 283 284 286 286 286 286 286 286 286 287 288 289 289 289 287 284 283 284 284 284 282 281 280 277 274 272 272
280 280 280 280 280 282 282 282 284 284 284 284 285 285 286 286 286 287 288 288 289 289 290 291 291 291 289 287 285 284 284 283 282 280 278 276 275 274
281 281 280 280 279 279 280 281 281 282 283 284 285 286 286 287 288 289 289 290 290 289 290 290 290 290 290 290 288 286 285 283 282 280 279 277 277 277
Height
5841 5841 5841 5840 5840 5840 5840 5840 5841 5840 5839 5839 5838 5837 5836 5836 5835 5834 5833 5833 5832 5832 5831 5830 5829 5829 5828 5827 5827 5826 5825 5825 5825 5824 5824 5823 5822 5821
5838 5838 5837 5837 5837 5837 5837 5837 5837 5836 5836 5835 5834 5833 5833 5832 5831 5830 5829 5828 5828 5827 5826 5825 5824 5824 5823 5822 5822 5821 5820 5820 5819 5819 5818 5818 5817 5816
5835 5834 5834 5834 5833 5833 5833 5833 5832 5832 5832 5831 5830 5829 5828 5827 5826 5825 5824 5823 5822 5822 5821 5820 5819 5818 5817 5816 5816 5815 5814 5814 5813 5813 5812 5812 5811 5811
5831 5830 5830 5830 5829 5829 5829 5828 5828 5828 5827 5826 5825 5824 5824 5823 5822 5821 5819 5818 5817 5815 5814 5813 5812 5812 5811 5810 5809 5809 5808 5807 5807 5806 5806 5806 5805 5804
5826 5826 5826 5825 5825 5825 5824 5824 5823 5823 5822 5821 5820 5819 5819 5817 5816 5815 5814 5812 5810 5809 5808 5806 5806 5805 5804 5803 5803 5802 5802 5801 5800 5800 5799 5799 5798 5798
5822 5821 5821 5821 5820 5820 5819 5818 5818 5817 5817 5816 5815 5814 5813 5812 5810 5809 5807 5806 5804 5803 5801 5800 5799 5798 5797 5797 5796 5796 5795 5794 5793 5793 5792 5792 5792 5791
5817 5816 5816 5815 5815 5814 5813 5812 5812 5811 5810 5810 5809 5808 5807 5805 5804 5803 5801 5800 5798 5796 5795 5793 5792 5792 5790 5790 5789 5788 5787 5786 5786 5785 5785 5784 5784 5784
5811 5811 5810 5809 5809 5808 5807 5806 5805 5804 5804 5803 5802 5801 5800 5799 5797 5796 5794 5793 5792 5790 5788 5787 5785 5784 5783 5782 5781 5780 5779 5779 5778 5777 5777 5776 5776 5776
5806 5805 5804 5803 5802 5802 5801 5799 5798 5797 5797 5796 5795 5794 5793 5792 5790 5789 5787 5785 5784 5783 5781 5779 5777 5776 5775 5774 5773 5772 5771 5770 5770 5769 5768 5768 5768 5768
5799 5798 5798 5797 5796 5794 5793 5792 5791 5790 5789 5788 5787 5786 5785 5784 5782 5781 5779 5778 5776 5775 5773 5772 5770 5769 5767 5766 5764 5764 5763 5762 5761 5760 5759 5759 5759 5759
5792 5791 5790 5790 5788 5787 5786 5785 5783 5782 5781 5780 5779 5778 5777 5776 5774 5773 5771 5770 5769 5767 5765 5763 5762 5760 5759 5757 5756 5754 5754 5753 5752 5751 5750 5750 5750 5750
5785 5784 5783 5782 5781 5779 5778 5777 5775 5774 5773 5772 5771 5770 5768 5767 5766 5764 5763 5761 5760 5758 5756 5755 5753 5751 5750 5749 5747 5745 5744 5743 5742 5742 5741 5741 5741 5741
5777 5776 5775 5774 5773 5771 5770 5769 5768 5766 5765 5764 5763 5761 5760 5758 5756 5755 5753 5752 5750 5749 5747 5745 5744 5742 5740 5740 5738 5736 5735 5734 5733 5732 5731 5731 5731 5731
5769 5768 5767 5765 5764 5763 5762 5761 5759 5758 5757 5756 5754 5753 5751 5749 5747 5745 5744 5742 5740 5738 5737 5735 5734 5732 5731 5730 5728 5727 5725 5724 5723 5723 5722 5721 5721 5721
5760 5759 5758 5756 5755 5754 5753 5752 5750 5749 5748 5747 5745 5744 5742 5740 5738 5736 5734 5732 5730 5729 5727 5726 5724 5722 5721 5720 5719 5717 5716 5715 5713 5713 5713 5712 5712 5712
5751 5750 5749 5747 5746 5744 5743 5742 5741 5739 5738 5737 5736 5734 5732 5731 5729 5727 5725 5723 5721 5719 5718 5716 5714 5713 5711 5710 5708 5708 5706 5705 5704 5703 5703 5702 5702 5702
5741 5741 5740 5738 5737 5735 5734 5733 5732 5730 5729 5728 5726 5725 5724 5722 5720 5717 5716 5714 5712 5710 5708 5706 5704 5702 5701 5700 5699 5698 5696 5695 5694 5694 5694 5693 5693 5692
5732 5731 5730 5729 5728 5726 5725 5724 5722 5721 5720 5718 5717 5716 5714 5713 5711 5708 5706 5704 5703 5701 5699 5697 5695 5694 5692 5691 5690 5688 5686 5685 5685 5684 5684 5684 5683 5683
5723 5722 5721 5720 5719 5717 5716 5715 5713 5712 5710 5709 5708 5706 5705 5703 5701 5699 5697 5695 5694 5692 5690 5688 5686 5684 5683 5682 5680 5678 5677 5676 5675 5674 5674 5674 5673 5673
5713 5712 5711 5710 5709 5708 5706 5705 5704 5702 5701 5700 5698 5696 5695 5693 5691 5689 5688 5686 5684 5682 5680 5678 5676 5675 5673 5672 5670 5669 5667 5666 5666 5665 5664 5664 5663 5663
5703 5703 5702 5701 5700 5698 5697 5696 5695 5693 5692 5691 5689 5687 5685 5683 5682 5680 5678 5677 5675 5673 5671 5669 5667 5665 5664 5662 5661 5660 5658 5657 5655 5655 5654 5654 5653 5653
5694 5693 5692 5691 5690 5689 5688 5687 5686 5684 5683 5682 5680 5678 5676 5675 5673 5671 5669 5668 5666 5664 5662 5660 5658 5656 5655 5653 5652 5650 5649 5647 5646 5644 5644 5644 5643 5643
5685 5684 5682 5681 5680 5679 5679 5678 5677 5676 5674 5673 5671 5670 5668 5666 5664 5662 5661 5659 5657 5655 5653 5651 5649 5647 5646 5644 5642 5640 5639 5637 5636 5635 5635 5634 5633 5633